Temperature
8 8 8 8 8 8 8 8 8 8 8 8 8 8 9 9 9 9 9 9 9 9 9 9 10 10 10 10 10 10 10 10 10 9 8 8 8 7 7 7 7 7 7
8 8 8 7 8 7 7 7 7 7 8 8 8 8 8 8 8 8 8 8 8 8 8 9 9 9 9 9 9 9 9 9 10 9 8 7 7 7 7 7 7 7 7
7 7 7 7 7 7 7 7 7 7 7 7 7 7 7 7 7 7 7 7 7 8 8 8 8 8 9 9 9 9 9 9 9 8 8 7 7 7 7 7 7 7 7
7 7 7 6 6 6 6 6 6 6 6 6 6 6 6 6 7 7 7 7 7 7 7 7 7 8 8 8 8 8 8 8 8 8 7 7 7 7 7 7 7 7 7
6 6 6 6 6 6 6 6 6 6 6 6 6 6 6 6 6 6 6 6 6 7 7 7 7 7 7 7 8 8 8 8 7 7 7 7 7 7 7 7 7 7 7
6 6 6 5 5 5 5 5 5 5 5 5 5 6 6 6 6 6 6 6 6 6 6 6 7 7 7 7 7 7 7 7 7 7 7 7 7 7 7 7 7 7 6
6 6 6 5 5 5 5 5 5 5 5 5 5 5 5 5 6 6 6 6 6 6 6 6 6 6 6 7 7 7 7 7 7 7 7 7 6 6 6 6 6 6 6
6 6 5 5 5 5 5 5 5 5 5 5 5 5 5 5 5 6 6 6 6 6 6 6 6 6 6 6 6 6 6 6 6 6 6 6 6 6 6 6 6 6 6
6 5 5 5 5 5 5 5 5 5 5 5 5 5 5 5 5 5 6 6 6 6 6 6 6 6 6 6 6 6 6 6 6 6 6 6 6 6 6 6 6 6 6
6 5 5 5 5 5 5 5 5 5 5 5 5 5 5 5 5 5 5 5 5 5 5 5 5 5 5 5 6 6 6 6 6 6 6 6 6 6 6 6 6 6 6
5 5 5 5 5 5 5 5 5 5 5 5 5 5 5 5 5 5 5 5 5 5 5 5 5 5 5 5 5 6 6 6 6 6 6 6 6 6 6 6 6 6 6
5 5 5 5 5 5 5 5 5 5 5 5 5 5 5 5 5 5 5 5 5 5 5 5 5 5 5 5 5 5 6 6 6 6 6 6 6 6 6 6 6 6 6
5 5 5 5 5 5 5 5 5 5 5 5 5 5 5 5 5 5 5 5 5 5 5 5 5 5 5 5 5 5 6 6 6 6 6 6 6 6 6 6 6 6 6
6 5 5 5 5 5 5 5 5 5 5 5 5 5 5 5 5 5 5 5 5 5 5 5 5 5 5 5 5 6 6 6 6 6 6 6 6 6 6 6 6 6 6
6 6 5 5 5 5 5 5 5 5 5 5 5 5 5 5 5 5 5 5 5 5 6 6 6 6 6 5 5 5 5 5 5 6 6 6 6 6 6 6 6 6 6
6 6 6 6 6 6 6 5 5 5 5 5 5 5 5 5 5 5 5 5 5 5 5 5 5 5 5 5 5 5 5 5 5 5 5 5 5 6 6 6 6 6 6
6 6 6 6 6 6 6 6 6 5 5 5 5 5 5 5 5 5 5 6 6 5 5 5 5 5 5 5 5 5 5 5 5 5 5 5 5 5 6 6 6 6 6
6 6 6 6 6 6 6 6 6 6 6 6 6 6 5 5 5 5 6 6 6 5 5 5 5 5 5 5 5 5 5 5 5 5 5 5 5 5 5 6 6 6 6
6 6 6 6 6 6 6 6 6 6 6 6 6 6 6 6 6 6 6 6 6 5 5 5 5 5 5 5 5 5 5 5 5 5 5 5 5 5 5 6 6 6 6
7 7 7 7 7 7 7 6 6 6 6 6 6 6 6 6 6 6 6 6 6 5 5 5 5 5 5 5 5 5 4 4 4 5 5 5 5 5 5 5 6 6 6
7 7 7 7 7 7 7 7 7 7 7 6 6 6 6 6 6 6 6 6 6 5 5 5 5 5 5 5 5 4 4 4 4 4 4 5 5 5 5 5 6 6 6
7 7 7 7 7 7 7 7 7 7 7 7 7 7 7 6 6 6 6 6 6 6 5 5 5 5 5 5 5 4 4 4 4 4 4 4 5 5 5 5 5 6 6
7 7 7 8 8 8 8 8 8 8 8 7 7 7 7 7 7 7 6 6 6 6 6 5 5 5 5 5 5 5 4 4 4 4 4 4 5 5 5 5 5 6 6
8 8 8 8 8 8 8 8 8 8 8 8 8 8 7 7 7 7 7 7 6 6 6 6 5 5 5 5 5 5 5 5 5 4 5 5 5 5 5 5 5 5 6
8 8 8 8 8 8 8 8 8 8 8 8 8 8 8 8 8 7 7 7 7 7 6 6 6 6 5 5 5 5 5 5 5 5 5 5 5 5 5 5 5 5 5
8 8 8 9 9 9 9 9 9 9 9 9 9 8 8 8 8 8 8 7 7 7 7 7 6 6 6 6 6 5 5 5 5 5 5 5 5 5 5 5 5 5 5
Wind_Speed
8 8 8 8 8 8 8 8 8 8 8 8 8 8 9 9 9 9 9 9 10 9 7 8 7 6 5 5 5 4 4 5 6 3 2 3 3 3 3 2 1 0 1
7 8 8 8 8 9 9 8 8 9 8 9 9 9 10 10 9 10 10 10 10 9 8 9 8 7 8 6 6 6 5 4 7 7 3 3 4 2 2 2 2 2 2
7 8 9 9 9 9 8 8 9 9 9 9 10 10 10 10 10 10 10 10 10 9 9 9 8 9 8 6 7 7 6 7 6 7 4 3 3 3 2 2 2 3 3
7 8 9 8 8 8 8 8 8 8 9 9 9 9 9 9 9 9 10 10 10 10 9 9 8 9 8 7 7 7 8 8 8 7 5 3 3 2 2 2 2 2 2
7 8 7 7 7 7 8 8 8 8 8 8 9 9 9 8 8 8 8 10 10 10 10 10 9 11 11 8 7 7 8 7 7 6 5 3 2 2 2 1 1 1 1
6 6 5 6 7 7 7 8 8 8 8 9 9 9 9 7 10 11 9 9 9 9 9 9 9 11 12 13 12 10 8 7 6 4 3 3 2 1 1 1 1 1 1
5 5 6 6 7 7 7 8 8 8 8 9 8 9 9 9 12 12 11 9 9 9 8 8 8 9 10 9 11 12 11 9 7 5 4 3 2 2 2 1 1 0 1
5 5 6 6 7 7 7 8 7 6 7 6 7 8 8 8 11 12 12 9 9 8 8 7 8 8 8 8 8 8 8 7 5 3 3 2 2 2 2 1 1 1 2
4 4 5 6 7 7 7 6 5 5 6 6 6 7 8 8 10 11 10 7 8 8 7 7 7 7 9 9 8 7 6 5 7 6 2 1 2 3 5 3 1 1 1
4 4 5 6 6 6 5 5 4 5 5 6 7 7 7 7 9 10 9 6 6 5 5 6 8 8 8 8 6 5 5 4 4 4 4 4 3 1 4 3 2 1 1
4 5 6 6 5 5 5 4 5 5 6 6 7 7 7 7 8 10 9 5 4 4 4 4 4 7 7 7 5 3 2 1 2 3 3 3 3 2 1 2 4 3 2
5 6 6 5 4 5 6 5 5 5 6 5 5 6 5 6 8 8 10 8 5 4 2 2 3 5 6 6 4 3 3 3 2 3 3 3 2 2 2 4 4 7 8
6 6 5 5 5 4 4 5 4 4 4 4 4 4 3 4 5 8 9 8 7 3 1 2 4 5 6 5 6 6 4 3 2 2 2 2 2 3 4 3 2 3 5
6 5 5 5 5 5 4 3 3 3 3 3 3 2 2 2 3 3 3 4 5 4 3 5 7 8 7 5 4 4 4 3 2 2 2 2 3 2 2 2 2 3 2
6 5 4 4 4 4 4 3 2 1 2 3 2 2 2 1 1 1 1 2 2 2 2 3 4 4 4 4 4 4 3 3 3 2 2 2 3 3 2 2 2 2 2
5 4 3 3 3 3 3 4 6 4 3 3 4 4 1 2 1 1 3 3 3 2 3 3 3 3 3 3 3 3 3 3 2 2 2 2 2 3 3 3 2 2 2
4 3 2 2 2 2 2 3 2 4 7 6 3 2 2 1 0 1 2 4 4 4 3 1 1 1 1 2 2 2 2 2 2 2 2 2 2 2 2 3 3 2 3
4 3 3 2 2 2 2 2 2 2 2 2 3 2 0 0 1 2 1 3 3 3 1 0 1 1 1 1 1 1 2 2 2 2 2 2 2 2 2 3 3 3 3
3 2 2 2 2 2 2 1 1 1 1 0 1 2 2 2 2 2 2 1 0 1 1 1 1 1 1 1 1 1 1 1 1 1 2 2 2 2 2 3 3 4 3
2 3 3 2 2 2 1 2 1 1 1 1 1 1 1 1 1 1 1 0 1 1 2 2 1 2 1 1 1 1 1 1 1 1 2 2 2 2 3 4 4 4 3
2 2 3 2 2 2 2 2 2 2 2 2 3 3 3 2 2 2 2 2 2 2 2 2 2 2 1 1 1 1 1 1 1 2 2 2 3 3 3 3 4 4 4
3 2 2 2 2 2 2 2 2 3 3 3 3 2 4 3 3 3 3 3 3 3 4 3 3 3 3 3 2 2 2 2 2 2 2 3 3 3 3 3 4 4 4
3 3 2 2 2 3 2 2 3 3 4 4 3 3 3 3 4 4 4 4 4 4 5 5 4 4 5 5 5 5 4 4 3 3 3 3 3 3 4 4 5 5 4
3 3 3 2 2 2 2 3 3 4 4 4 4 4 4 5 5 5 5 5 5 6 6 7 7 8 8 7 7 7 7 7 6 5 5 4 4 4 4 4 5 5 5
3 3 3 3 3 3 3 3 3 4 4 4 5 5 5 5 5 6 5 6 6 7 8 9 9 10 11 11 10 10 10 9 9 7 6 5 5 5 5 5 5 5 5
4 4 3 3 3 3 4 4 4 5 5 5 5 5 5 6 6 6 6 6 6 7 8 9 11 12 13 12 12 13 12 12 11 10 8 6 5 5 5 5 6 6 6
Wind_Direction
52 55 58 55 54 56 57 53 52 52 50 52 53 56 59 59 60 65 66 68 73 69 68 75 72 71 81 84 90 95 97 110 122 110 87 93 94 94 81 79 78 351 302
55 60 59 58 58 58 55 51 53 55 52 53 56 58 59 61 61 67 69 66 68 67 65 71 70 75 73 76 86 91 94 96 124 122 98 78 74 80 78 70 50 32 339
57 63 61 57 56 56 54 52 53 56 55 54 57 59 58 57 61 65 70 69 68 66 65 68 68 76 75 77 84 91 93 96 102 116 107 81 71 64 71 54 38 17 16
61 63 61 55 55 56 55 54 53 55 56 55 56 57 57 58 60 66 70 71 69 66 65 66 66 72 77 80 84 89 98 98 100 106 105 88 72 57 76 62 36 13 5
67 65 62 58 58 59 58 55 54 53 56 55 57 54 51 56 59 69 72 75 74 71 64 61 63 69 70 73 87 91 99 102 106 107 104 96 86 81 81 49 43 354 358
77 73 67 66 65 63 61 60 59 56 53 55 53 54 52 55 58 67 77 74 73 73 68 59 59 59 63 67 77 82 93 109 114 111 114 124 132 135 115 81 62 29 343
73 73 75 74 72 69 71 68 62 57 56 56 52 56 54 50 59 68 75 78 72 67 66 63 63 56 59 68 68 67 66 76 100 124 128 143 155 171 153 132 142 199 264
70 70 78 83 81 76 72 70 65 61 59 57 51 52 54 48 61 73 78 75 70 64 63 66 68 56 57 71 75 68 59 54 63 93 133 165 191 194 185 166 160 276 290
76 75 85 92 90 85 79 72 66 68 63 57 54 54 56 44 57 76 81 79 73 62 56 58 65 63 55 69 76 72 58 39 45 61 95 148 208 206 177 150 134 50 347
82 84 88 91 91 90 88 81 72 75 72 69 61 52 55 47 50 71 82 84 77 65 51 46 51 58 57 65 73 73 59 25 18 34 45 48 53 101 183 191 182 181 263
96 91 87 86 88 92 87 82 87 83 77 70 65 52 47 43 46 60 73 81 87 75 58 37 26 35 48 61 76 74 58 37 38 44 44 37 39 48 70 213 213 208 220
95 89 82 78 83 92 89 83 84 88 81 70 65 53 39 32 42 55 64 72 83 82 61 16 357 19 43 59 69 67 69 73 65 54 49 30 15 5 343 317 260 235 238
88 82 78 75 70 79 91 95 88 85 89 82 78 67 43 32 31 43 53 56 57 67 41 19 34 49 63 60 54 57 64 66 63 53 35 2 332 317 319 329 336 300 268
91 81 77 80 74 67 71 87 101 105 106 106 102 90 61 36 22 18 25 33 36 42 38 40 51 57 58 49 45 44 45 54 66 51 6 336 332 343 0 1 355 351 344
98 90 81 83 90 81 70 62 93 112 179 155 152 142 120 79 327 331 22 14 7 11 30 42 41 39 38 31 28 31 32 40 48 32 16 9 5 4 3 355 353 348 340
105 100 97 95 91 93 92 68 50 57 80 142 158 158 173 200 226 2 6 7 13 81 81 60 45 38 35 22 13 9 15 19 17 16 20 13 1 358 357 360 356 341 324
127 128 119 115 117 114 107 103 74 35 49 61 90 154 173 179 179 7 29 46 61 86 80 68 41 15 3 355 353 350 350 353 351 5 13 4 354 354 1 358 355 343 326
128 139 139 143 143 139 134 122 118 102 56 16 13 13 345 302 332 349 55 66 51 47 60 15 310 308 303 308 320 330 338 353 5 5 6 -0 356 353 353 349 347 335 323
142 149 146 148 152 152 146 138 137 128 121 333 337 349 359 356 14 28 73 94 37 338 316 283 278 285 283 285 294 308 325 346 359 358 356 353 349 345 340 337 332 324 319
151 168 154 149 152 152 156 164 177 187 212 252 272 277 320 17 360 355 13 251 258 271 270 266 276 276 272 275 272 268 307 332 345 346 339 338 339 334 330 328 330 330 320
150 155 154 152 177 191 195 203 205 207 225 248 259 249 216 225 253 268 274 266 254 255 256 252 257 262 254 248 242 250 266 286 296 305 315 321 326 324 319 316 318 322 317
157 164 175 193 204 211 223 222 213 219 234 248 264 268 221 220 242 254 260 261 254 247 242 237 245 248 246 242 237 241 256 271 280 287 294 303 309 314 317 319 323 326 324
171 182 197 216 221 231 240 237 228 230 239 246 252 255 241 235 244 248 255 258 254 247 239 228 233 246 250 246 240 237 248 260 264 261 273 291 301 308 311 312 317 320 321
185 200 216 231 233 231 237 241 236 236 239 243 245 246 246 244 247 250 252 253 250 248 241 233 235 242 249 251 251 249 252 257 257 254 259 274 286 295 299 301 304 309 308
196 211 223 232 236 238 240 243 244 243 243 244 246 247 249 248 248 251 250 248 246 247 247 242 242 245 249 251 252 255 260 259 257 256 256 261 274 282 287 291 296 304 305
209 220 232 238 241 240 239 244 248 248 248 250 248 247 247 249 250 250 248 244 244 246 247 246 244 245 249 252 256 258 260 259 257 255 250 254 265 272 280 282 290 292 297
Height
1515 1515 1514 1514 1515 1515 1515 1515 1515 1515 1515 1515 1514 1514 1514 1514 1514 1515 1515 1516 1517 1518 1520 1521 1522 1525 1527 1529 1531 1533 1536 1539 1542 1546 1550 1554 1556 1559 1561 1562 1564 1565 1566
1517 1517 1517 1517 1517 1517 1517 1517 1517 1517 1517 1517 1517 1517 1516 1516 1517 1517 1517 1518 1519 1520 1522 1523 1525 1527 1528 1530 1532 1534 1537 1539 1542 1545 1550 1553 1556 1558 1560 1562 1563 1564 1565
1520 1520 1520 1520 1520 1520 1520 1520 1520 1520 1520 1520 1520 1519 1519 1519 1520 1520 1521 1521 1522 1524 1525 1526 1528 1529 1530 1532 1534 1536 1538 1541 1544 1546 1550 1553 1556 1558 1560 1562 1563 1564 1564
1523 1523 1523 1523 1523 1523 1523 1523 1523 1523 1523 1523 1523 1523 1523 1523 1524 1524 1525 1526 1527 1528 1529 1530 1531 1532 1533 1535 1536 1538 1541 1543 1546 1548 1551 1554 1556 1558 1560 1561 1562 1563 1563
1526 1526 1526 1526 1526 1526 1526 1527 1527 1527 1527 1527 1526 1527 1527 1528 1528 1529 1529 1530 1531 1532 1533 1534 1535 1536 1538 1539 1540 1542 1543 1545 1548 1550 1552 1554 1557 1558 1560 1560 1561 1561 1562
1528 1529 1529 1529 1529 1530 1530 1530 1530 1531 1531 1531 1531 1531 1531 1532 1533 1534 1534 1535 1536 1536 1537 1538 1539 1540 1541 1542 1543 1545 1546 1548 1549 1551 1553 1555 1557 1558 1559 1560 1560 1560 1561
1532 1532 1532 1533 1533 1533 1534 1534 1534 1534 1535 1535 1535 1535 1536 1537 1538 1538 1539 1540 1540 1541 1542 1543 1543 1544 1545 1546 1546 1547 1548 1550 1551 1553 1554 1556 1557 1558 1559 1559 1560 1560 1560
1534 1535 1535 1536 1536 1536 1537 1537 1538 1538 1539 1539 1539 1540 1541 1542 1542 1543 1544 1544 1545 1545 1546 1546 1547 1547 1548 1549 1549 1550 1551 1552 1553 1554 1555 1556 1557 1558 1558 1559 1559 1559 1559
1537 1538 1538 1539 1539 1539 1540 1541 1541 1542 1543 1543 1544 1544 1545 1546 1547 1547 1548 1548 1548 1549 1549 1550 1550 1550 1551 1552 1552 1552 1553 1554 1554 1555 1556 1557 1558 1558 1559 1559 1559 1559 1559
1540 1540 1541 1542 1542 1543 1543 1544 1545 1546 1546 1547 1548 1548 1549 1550 1550 1551 1551 1552 1552 1552 1552 1553 1553 1553 1553 1554 1554 1554 1555 1555 1556 1557 1557 1558 1558 1559 1559 1559 1559 1559 1558
1542 1543 1544 1544 1545 1546 1547 1547 1548 1549 1550 1550 1551 1552 1552 1553 1553 1554 1554 1555 1555 1555 1555 1555 1556 1556 1556 1556 1556 1556 1556 1557 1557 1558 1558 1559 1559 1559 1559 1559 1559 1559 1558
1545 1546 1547 1548 1548 1549 1550 1550 1551 1552 1553 1553 1554 1555 1555 1556 1556 1557 1557 1557 1558 1558 1558 1558 1558 1558 1558 1558 1558 1558 1558 1558 1558 1559 1559 1559 1559 1559 1559 1559 1558 1558 1557
1547 1548 1549 1550 1551 1552 1552 1553 1554 1555 1555 1556 1557 1557 1558 1558 1559 1559 1559 1560 1560 1560 1560 1560 1560 1560 1560 1560 1560 1559 1559 1559 1559 1559 1559 1559 1559 1559 1558 1558 1558 1557 1557
1550 1551 1552 1553 1553 1554 1555 1556 1556 1557 1558 1558 1559 1559 1560 1560 1561 1561 1561 1562 1562 1562 1562 1562 1562 1562 1561 1561 1561 1560 1560 1560 1560 1560 1560 1559 1559 1559 1558 1558 1557 1556 1556
1552 1553 1554 1555 1556 1556 1557 1558 1559 1559 1560 1561 1561 1561 1562 1562 1562 1563 1563 1563 1564 1564 1564 1564 1563 1563 1563 1562 1562 1561 1561 1560 1560 1560 1560 1559 1559 1558 1558 1557 1557 1556 1555
1554 1555 1556 1557 1558 1559 1559 1560 1561 1561 1562 1562 1563 1563 1563 1564 1564 1564 1565 1565 1565 1565 1565 1564 1564 1564 1563 1563 1562 1562 1561 1560 1560 1560 1559 1559 1558 1558 1557 1557 1556 1555 1554
1557 1558 1559 1559 1560 1561 1561 1562 1562 1563 1563 1564 1564 1564 1565 1565 1566 1566 1566 1566 1566 1566 1565 1565 1565 1564 1564 1563 1563 1562 1561 1561 1560 1560 1559 1559 1558 1558 1557 1556 1555 1555 1553
1559 1560 1561 1562 1562 1563 1563 1564 1564 1564 1565 1565 1565 1566 1566 1566 1566 1567 1567 1567 1566 1566 1566 1565 1565 1565 1564 1563 1563 1562 1561 1560 1560 1559 1559 1558 1558 1557 1556 1556 1555 1554 1553
1560 1562 1563 1564 1564 1565 1565 1565 1566 1566 1566 1566 1567 1567 1567 1567 1567 1567 1567 1567 1567 1566 1566 1565 1565 1564 1564 1563 1562 1562 1561 1560 1559 1559 1558 1558 1557 1556 1556 1555 1554 1553 1552
1562 1563 1564 1565 1566 1566 1566 1566 1567 1567 1567 1567 1567 1568 1568 1568 1568 1567 1567 1567 1567 1566 1566 1565 1565 1564 1563 1562 1562 1561 1560 1559 1559 1558 1557 1557 1556 1556 1555 1554 1553 1552 1551
1563 1564 1565 1566 1567 1567 1567 1568 1568 1568 1568 1568 1568 1568 1568 1568 1568 1568 1567 1567 1567 1566 1566 1565 1564 1563 1562 1561 1560 1560 1559 1558 1558 1557 1556 1555 1555 1554 1554 1553 1552 1551 1550
1564 1565 1566 1567 1567 1568 1568 1568 1568 1568 1568 1568 1568 1568 1568 1568 1568 1568 1567 1567 1567 1566 1565 1565 1564 1563 1561 1560 1559 1558 1558 1557 1556 1555 1555 1554 1553 1553 1552 1552 1551 1550 1549
1564 1565 1566 1567 1567 1567 1567 1567 1568 1568 1568 1568 1568 1568 1568 1568 1568 1567 1567 1567 1566 1565 1565 1564 1563 1562 1560 1559 1558 1557 1556 1555 1555 1554 1553 1553 1552 1552 1551 1550 1549 1548 1547
1564 1565 1566 1566 1566 1566 1567 1567 1567 1567 1568 1568 1568 1567 1567 1567 1567 1566 1566 1566 1565 1564 1563 1562 1561 1560 1559 1558 1557 1556 1555 1554 1553 1552 1552 1551 1551 1550 1549 1548 1547 1546 1545
1563 1564 1565 1565 1566 1566 1566 1566 1566 1567 1567 1567 1566 1566 1566 1566 1565 1565 1565 1564 1563 1562 1562 1561 1560 1559 1558 1556 1555 1554 1553 1552 1552 1551 1550 1549 1548 1548 1547 1546 1545 1544 1543
1562 1563 1564 1564 1564 1565 1565 1565 1565 1565 1565 1565 1565 1564 1564 1564 1563 1563 1562 1562 1561 1560 1560 1559 1558 1557 1555 1554 1553 1552 1551 1550 1549 1548 1548 1547 1546 1545 1544 1543 1542 1541 1540